Time,TemperatureF,DewpointF,PressureIn,WindDirection,WindDirectionDegrees,WindSpeedMPH,WindSpeedGustMPH,Humidity,HourlyPrecipIn,Conditions,Clouds,dailyrainin,SoftwareType,DateUTC
2013-03-08 00:01:00,36.0,34.1,29.62,ENE,76,0.0,0.0,93,0.00,,---,0.00,VWS V14.01,2013-03-08 08:01:00,
2013-03-08 00:06:00,35.8,34.0,29.62,ENE,76,0.0,0.0,93,0.00,,---,0.00,VWS V14.01,2013-03-08 08:06:00,
2013-03-08 00:11:00,35.8,34.0,29.62,ENE,76,0.0,0.0,93,0.00,,---,0.00,VWS V14.01,2013-03-08 08:11:00,
2013-03-08 00:16:00,35.8,34.0,29.62,ENE,76,0.0,0.0,93,0.00,,---,0.00,VWS V14.01,2013-03-08 08:16:00,
2013-03-08 00:21:00,35.8,34.0,29.62,ENE,76,0.0,0.0,93,0.00,,---,0.00,VWS V14.01,2013-03-08 08:21:00,
2013-03-08 00:26:00,35.6,33.8,29.62,ENE,76,0.0,0.0,93,0.00,,---,0.00,VWS V14.01,2013-03-08 08:26:00,
2013-03-08 00:31:00,35.6,33.8,29.62,ENE,76,0.0,0.0,93,0.00,,---,0.00,VWS V14.01,2013-03-08 08:31:00,
2013-03-08 00:36:00,35.4,33.6,29.62,ENE,76,0.0,0.0,93,0.00,,---,0.00,VWS V14.01,2013-03-08 08:36:00,
2013-03-08 00:41:00,35.4,33.6,29.62,ENE,76,0.0,0.0,93,0.00,,---,0.00,VWS V14.01,2013-03-08 08:41:00,
2013-03-08 00:46:00,35.4,33.6,29.62,ENE,76,0.0,0.0,93,0.00,,---,0.00,VWS V14.01,2013-03-08 08:46:00,
2013-03-08 00:51:00,35.4,33.6,29.62,ENE,76,0.0,0.0,93,0.00,,---,0.00,VWS V14.01,2013-03-08 08:51:00,
2013-03-08 00:56:00,35.1,33.2,29.62,ENE,76,0.0,0.0,93,0.00,,---,0.00,VWS V14.01,2013-03-08 08:56:00,
2013-03-08 01:01:00,35.1,33.2,29.62,ENE,76,0.0,0.0,93,0.00,,---,0.35,VWS V14.01,2013-03-08 09:01:00,
2013-03-08 01:06:00,35.1,33.2,29.62,ENE,76,0.0,0.0,93,0.00,,---,0.00,VWS V14.01,2013-03-08 09:06:00,
2013-03-08 01:11:00,35.1,33.2,29.62,ENE,76,0.0,0.0,93,0.00,,---,0.00,VWS V14.01,2013-03-08 09:11:00,
2013-03-08 01:16:00,35.1,33.2,29.62,ENE,76,0.0,0.0,93,0.00,,---,0.00,VWS V14.01,2013-03-08 09:16:00,
2013-03-08 01:21:00,35.1,33.2,29.62,ENE,76,0.0,0.0,93,0.00,,---,0.00,VWS V14.01,2013-03-08 09:21:00,
2013-03-08 01:26:00,34.9,33.1,29.62,ENE,76,0.0,0.0,93,0.00,,---,0.00,VWS V14.01,2013-03-08 09:26:00,
2013-03-08 01:31:00,34.7,32.9,29.62,ENE,76,0.0,0.0,93,0.00,,---,0.00,VWS V14.01,2013-03-08 09:31:00,
2013-03-08 01:36:00,34.9,33.3,29.62,ENE,76,0.0,0.0,94,0.00,,---,0.00,VWS V14.01,2013-03-08 09:36:00,
2013-03-08 01:41:00,34.9,33.3,29.62,ENE,76,0.0,0.0,94,0.00,,---,0.00,VWS V14.01,2013-03-08 09:41:00,
2013-03-08 01:46:00,34.7,33.2,29.59,ENE,76,0.0,0.0,94,0.00,,---,0.00,VWS V14.01,2013-03-08 09:46:00,
2013-03-08 01:51:00,34.5,33.0,29.59,ENE,76,0.0,0.0,94,0.00,,---,0.00,VWS V14.01,2013-03-08 09:51:00,
2013-03-08 01:56:00,34.5,33.0,29.59,ENE,76,0.0,0.0,94,0.00,,---,0.00,VWS V14.01,2013-03-08 09:56:00,
2013-03-08 02:01:00,34.7,32.9,29.59,ENE,76,0.0,0.0,93,0.00,,---,0.00,VWS V14.01,2013-03-08 10:01:00,
2013-03-08 02:06:00,34.5,32.7,29.59,ENE,76,0.0,0.0,93,0.00,,---,0.00,VWS V14.01,2013-03-08 10:06:00,
2013-03-08 02:11:00,34.3,32.5,29.59,ENE,76,0.0,0.0,93,0.00,,---,0.00,VWS V14.01,2013-03-08 10:11:00,
2013-03-08 02:16:00,34.2,32.3,29.59,ENE,76,0.0,0.0,93,0.00,,---,0.00,VWS V14.01,2013-03-08 10:16:00,
2013-03-08 02:21:00,34.3,32.5,29.59,ENE,76,0.0,0.0,93,0.00,,---,0.00,VWS V14.01,2013-03-08 10:21:00,
2013-03-08 02:26:00,34.3,32.5,29.59,ENE,76,0.0,0.0,93,0.00,,---,0.00,VWS V14.01,2013-03-08 10:26:00,
2013-03-08 02:31:00,34.2,32.3,29.59,ENE,76,0.0,0.0,93,0.00,,---,0.00,VWS V14.01,2013-03-08 10:31:00,
2013-03-08 02:36:00,34.0,32.2,29.59,ENE,76,0.0,0.0,93,0.00,,---,0.00,VWS V14.01,2013-03-08 10:36:00,
2013-03-08 02:41:00,33.8,32.0,29.59,ENE,76,0.0,0.0,93,0.00,,---,0.00,VWS V14.01,2013-03-08 10:41:00,
2013-03-08 02:46:00,33.8,32.0,29.59,ENE,76,0.0,0.0,93,0.00,,---,0.00,VWS V14.01,2013-03-08 10:46:00,
2013-03-08 02:51:00,33.8,32.0,29.59,ENE,76,0.0,0.0,93,0.00,,---,0.00,VWS V14.01,2013-03-08 10:51:00,
2013-03-08 02:56:00,33.6,32.1,29.59,ENE,76,0.0,0.0,94,0.00,,---,0.00,VWS V14.01,2013-03-08 10:56:00,
2013-03-08 03:01:00,33.6,32.1,29.59,ENE,76,0.0,0.0,94,0.00,,---,0.00,VWS V14.01,2013-03-08 11:01:00,
2013-03-08 03:06:00,33.6,32.1,29.59,ENE,76,0.0,0.0,94,0.00,,---,0.00,VWS V14.01,2013-03-08 11:06:00,
2013-03-08 03:11:00,33.6,32.1,29.59,ENE,76,0.0,0.0,94,0.00,,---,0.00,VWS V14.01,2013-03-08 11:11:00,
2013-03-08 03:16:00,33.4,31.9,29.59,ENE,76,0.0,0.0,94,0.00,,---,0.00,VWS V14.01,2013-03-08 11:16:00,
2013-03-08 03:21:00,33.3,31.7,29.59,ENE,76,0.0,0.0,94,0.00,,---,0.00,VWS V14.01,2013-03-08 11:21:00,
2013-03-08 03:26:00,33.3,31.7,29.59,ENE,76,0.0,0.0,94,0.00,,---,0.00,VWS V14.01,2013-03-08 11:26:00,
2013-03-08 03:31:00,33.3,31.7,29.59,ENE,76,0.0,0.0,94,0.00,,---,0.00,VWS V14.01,2013-03-08 11:31:00,
2013-03-08 03:36:00,33.3,31.7,29.59,ENE,76,0.0,0.0,94,0.00,,---,0.00,VWS V14.01,2013-03-08 11:36:00,
2013-03-08 03:41:00,33.3,31.5,29.59,ENE,76,0.0,0.0,93,0.00,,---,0.00,VWS V14.01,2013-03-08 11:41:00,
2013-03-08 03:46:00,33.4,31.6,29.59,ENE,76,0.0,0.0,93,0.00,,---,0.00,VWS V14.01,2013-03-08 11:46:00,
2013-03-08 03:51:00,33.6,31.8,29.59,ENE,76,0.0,0.0,93,0.00,,---,0.00,VWS V14.01,2013-03-08 11:51:00,
2013-03-08 03:56:00,33.4,31.6,29.59,ENE,76,0.0,0.0,93,0.00,,---,0.00,VWS V14.01,2013-03-08 11:56:00,
2013-03-08 04:01:00,33.4,31.6,29.59,ENE,76,0.0,0.0,93,0.00,,---,0.00,VWS V14.01,2013-03-08 12:01:00,
2013-03-08 04:06:00,33.3,31.5,29.59,ENE,76,0.0,0.0,93,0.00,,---,0.00,VWS V14.01,2013-03-08 12:06:00,
2013-03-08 04:11:00,32.9,31.1,29.59,ENE,76,0.0,0.0,93,0.00,,---,0.00,VWS V14.01,2013-03-08 12:11:00,
2013-03-08 04:16:00,32.9,31.1,29.59,ENE,76,0.0,0.0,93,0.00,,---,0.00,VWS V14.01,2013-03-08 12:16:00,
2013-03-08 04:21:00,32.9,31.1,29.59,ENE,76,0.0,0.0,93,0.00,,---,0.00,VWS V14.01,2013-03-08 12:21:00,
2013-03-08 04:26:00,33.1,31.3,29.59,ENE,76,0.0,0.0,93,0.00,,---,0.00,VWS V14.01,2013-03-08 12:26:00,
2013-03-08 04:31:00,32.9,31.1,29.59,ENE,76,0.0,0.0,93,0.00,,---,0.00,VWS V14.01,2013-03-08 12:31:00,
2013-03-08 04:36:00,32.9,31.1,29.59,ENE,76,0.0,0.0,93,0.00,,---,0.00,VWS V14.01,2013-03-08 12:36:00,
2013-03-08 04:41:00,32.7,30.9,29.59,ENE,76,0.0,0.0,93,0.00,,---,0.00,VWS V14.01,2013-03-08 12:41:00,
2013-03-08 04:46:00,32.9,31.1,29.59,ENE,76,0.0,0.0,93,0.00,,---,0.00,VWS V14.01,2013-03-08 12:46:00,
2013-03-08 04:51:00,32.9,31.4,29.59,ENE,76,0.0,0.0,94,0.00,,---,0.00,VWS V14.01,2013-03-08 12:51:00,
2013-03-08 04:56:00,32.9,31.4,29.59,ENE,76,0.0,0.0,94,0.00,,---,0.00,VWS V14.01,2013-03-08 12:56:00,
2013-03-08 05:01:00,32.9,31.4,29.59,ENE,76,0.0,0.0,94,0.00,,---,0.00,VWS V14.01,2013-03-08 13:01:00,
2013-03-08 05:06:00,32.9,31.4,29.59,ENE,76,0.0,0.0,94,0.00,,---,0.00,VWS V14.01,2013-03-08 13:06:00,
2013-03-08 05:11:00,32.9,31.4,29.59,ENE,76,0.0,0.0,94,0.00,,---,0.00,VWS V14.01,2013-03-08 13:11:00,
2013-03-08 05:16:00,32.9,31.4,29.59,ENE,76,0.0,0.0,94,0.00,,---,0.00,VWS V14.01,2013-03-08 13:16:00,
2013-03-08 05:21:00,32.7,31.2,29.59,ENE,76,0.0,0.0,94,0.00,,---,0.00,VWS V14.01,2013-03-08 13:21:00,
2013-03-08 05:26:00,32.7,31.2,29.59,ENE,76,0.0,0.0,94,0.00,,---,0.00,VWS V14.01,2013-03-08 13:26:00,
2013-03-08 05:31:00,32.7,31.2,29.59,ENE,76,0.0,0.0,94,0.00,,---,0.00,VWS V14.01,2013-03-08 13:31:00,
2013-03-08 05:36:00,32.7,31.2,29.59,ENE,76,0.0,0.0,94,0.00,,---,0.00,VWS V14.01,2013-03-08 13:36:00,
2013-03-08 05:41:00,32.9,31.1,29.59,ENE,76,0.0,0.0,93,0.00,,---,0.00,VWS V14.01,2013-03-08 13:41:00,
2013-03-08 05:46:00,32.5,30.7,29.59,ENE,76,0.0,0.0,93,0.00,,---,0.00,VWS V14.01,2013-03-08 13:46:00,
2013-03-08 05:51:00,32.7,30.9,29.59,ENE,76,0.0,0.0,93,0.00,,---,0.00,VWS V14.01,2013-03-08 13:51:00,
2013-03-08 05:56:00,32.5,30.7,29.59,ENE,76,0.0,0.0,93,0.00,,---,0.00,VWS V14.01,2013-03-08 13:56:00,
2013-03-08 06:01:00,32.7,30.9,29.62,ENE,76,0.0,0.0,93,0.00,,---,0.00,VWS V14.01,2013-03-08 14:01:00,
2013-03-08 06:06:00,32.9,31.1,29.62,ENE,76,0.0,0.0,93,0.00,,---,0.00,VWS V14.01,2013-03-08 14:06:00,
2013-03-08 06:11:00,32.9,31.1,29.62,ENE,76,0.0,0.0,93,0.00,,---,0.00,VWS V14.01,2013-03-08 14:11:00,
2013-03-08 06:16:00,32.9,31.1,29.62,ENE,76,0.0,0.0,93,0.00,,---,0.00,VWS V14.01,2013-03-08 14:16:00,
2013-03-08 06:21:00,32.9,31.1,29.62,ENE,76,0.0,0.0,93,0.00,,---,0.00,VWS V14.01,2013-03-08 14:21:00,
2013-03-08 06:26:00,32.5,30.7,29.62,ENE,76,0.0,0.0,93,0.00,,---,0.00,VWS V14.01,2013-03-08 14:26:00,
2013-03-08 06:31:00,32.5,30.7,29.62,ENE,76,0.0,0.0,93,0.00,,---,0.00,VWS V14.01,2013-03-08 14:31:00,
2013-03-08 06:36:00,32.7,30.9,29.62,ENE,76,0.0,0.0,93,0.00,,---,0.00,VWS V14.01,2013-03-08 14:36:00,
2013-03-08 06:41:00,32.5,30.7,29.62,ENE,76,0.0,0.0,93,0.00,,---,0.00,VWS V14.01,2013-03-08 14:41:00,
2013-03-08 06:46:00,32.7,30.9,29.62,ENE,76,0.0,0.0,93,0.00,,---,0.00,VWS V14.01,2013-03-08 14:46:00,
2013-03-08 06:51:00,32.9,31.1,29.62,ENE,76,0.0,0.0,93,0.00,,---,0.00,VWS V14.01,2013-03-08 14:51:00,
2013-03-08 06:56:00,32.9,31.1,29.62,ENE,76,0.0,0.0,93,0.00,,---,0.00,VWS V14.01,2013-03-08 14:56:00,
2013-03-08 07:01:00,32.7,30.9,29.62,ENE,76,0.0,0.0,93,0.00,,---,0.00,VWS V14.01,2013-03-08 15:01:00,
2013-03-08 07:06:00,32.7,30.9,29.62,ENE,76,0.0,0.0,93,0.00,,---,0.00,VWS V14.01,2013-03-08 15:06:00,
2013-03-08 07:11:00,32.5,30.7,29.62,ENE,76,0.0,0.0,93,0.00,,---,0.00,VWS V14.01,2013-03-08 15:11:00,
2013-03-08 07:16:00,32.5,30.7,29.59,ENE,76,0.0,0.0,93,0.00,,---,0.00,VWS V14.01,2013-03-08 15:16:00,
2013-03-08 07:21:00,32.7,30.9,29.59,ENE,76,0.0,0.0,93,0.00,,---,0.00,VWS V14.01,2013-03-08 15:21:00,
2013-03-08 07:26:00,32.7,30.9,29.59,ENE,74,0.0,0.0,93,0.00,,---,0.00,VWS V14.01,2013-03-08 15:26:00,
2013-03-08 07:31:00,32.5,31.0,29.62,ENE,74,0.0,0.0,94,0.00,,---,0.00,VWS V14.01,2013-03-08 15:31:00,
2013-03-08 07:36:00,32.7,31.2,29.62,ENE,74,0.0,0.0,94,0.00,,---,0.00,VWS V14.01,2013-03-08 15:36:00,
2013-03-08 07:41:00,32.9,31.4,29.62,ENE,74,0.0,0.0,94,0.00,,---,0.00,VWS V14.01,2013-03-08 15:41:00,
2013-03-08 07:46:00,32.7,31.2,29.62,ENE,74,0.0,0.0,94,0.00,,---,0.00,VWS V14.01,2013-03-08 15:46:00,
2013-03-08 07:51:00,32.9,31.4,29.62,ENE,74,0.0,0.0,94,0.00,,---,0.00,VWS V14.01,2013-03-08 15:51:00,
2013-03-08 07:56:00,32.9,31.4,29.62,ENE,74,0.0,0.0,94,0.00,,---,0.00,VWS V14.01,2013-03-08 15:56:00,
2013-03-08 08:01:00,33.1,31.5,29.62,ENE,74,0.0,0.0,94,0.00,,---,0.00,VWS V14.01,2013-03-08 16:01:00,
2013-03-08 08:06:00,33.3,32.0,29.62,ENE,74,0.0,0.0,95,0.00,,---,0.00,VWS V14.01,2013-03-08 16:06:00,
2013-03-08 08:11:00,33.6,32.1,29.62,ENE,74,0.0,0.0,94,0.00,,---,0.00,VWS V14.01,2013-03-08 16:11:00,
2013-03-08 08:16:00,33.8,32.3,29.62,ENE,74,0.0,0.0,94,0.00,,---,0.00,VWS V14.01,2013-03-08 16:16:00,
2013-03-08 08:21:00,33.8,32.3,29.62,ENE,74,0.0,0.0,94,0.00,,---,0.00,VWS V14.01,2013-03-08 16:21:00,
2013-03-08 08:26:00,34.0,32.4,29.62,ENE,74,0.0,0.0,94,0.00,,---,0.00,VWS V14.01,2013-03-08 16:26:00,
2013-03-08 08:31:00,34.3,32.8,29.62,ENE,74,0.0,0.0,94,0.00,,---,0.00,VWS V14.01,2013-03-08 16:31:00,
2013-03-08 08:36:00,34.3,32.8,29.62,ENE,74,0.0,0.0,94,0.00,,---,0.00,VWS V14.01,2013-03-08 16:36:00,
2013-03-08 08:41:00,34.3,32.8,29.62,ENE,74,0.0,0.0,94,0.00,,---,0.00,VWS V14.01,2013-03-08 16:41:00,
2013-03-08 08:46:00,34.5,33.0,29.62,ENE,74,0.0,0.0,94,0.00,,---,0.00,VWS V14.01,2013-03-08 16:46:00,
2013-03-08 08:51:00,34.7,33.2,29.62,ENE,74,0.0,0.0,94,0.00,,---,0.00,VWS V14.01,2013-03-08 16:51:00,
2013-03-08 08:56:00,34.5,33.0,29.62,ENE,74,0.0,0.0,94,0.00,,---,0.00,VWS V14.01,2013-03-08 16:56:00,
2013-03-08 09:01:00,34.5,33.2,29.62,NNE,26,0.0,0.0,95,0.00,,---,0.00,VWS V14.01,2013-03-08 17:01:00,
2013-03-08 09:06:00,34.9,33.6,29.62,ENE,68,2.2,2.2,95,0.00,,---,0.00,VWS V14.01,2013-03-08 17:06:00,
2013-03-08 09:11:00,35.2,34.0,29.62,SE,135,0.0,0.0,95,0.00,,---,0.00,VWS V14.01,2013-03-08 17:11:00,
2013-03-08 09:16:00,35.4,34.1,29.62,WSW,239,0.0,0.0,95,0.00,,---,0.00,VWS V14.01,2013-03-08 17:16:00,
2013-03-08 09:21:00,35.6,34.0,29.62,WSW,239,0.0,0.0,94,0.00,,---,0.00,VWS V14.01,2013-03-08 17:21:00,
2013-03-08 09:26:00,36.0,34.7,29.62,SW,232,0.0,0.0,95,0.00,,---,0.00,VWS V14.01,2013-03-08 17:26:00,
2013-03-08 09:31:00,36.3,35.0,29.62,SW,232,0.0,0.0,95,0.00,,---,0.00,VWS V14.01,2013-03-08 17:31:00,
2013-03-08 09:36:00,36.3,35.0,29.62,SW,232,0.0,0.0,95,0.00,,---,0.00,VWS V14.01,2013-03-08 17:36:00,
2013-03-08 09:41:00,36.7,35.4,29.62,SW,220,0.0,0.0,95,0.00,,---,0.00,VWS V14.01,2013-03-08 17:41:00,
2013-03-08 09:46:00,36.7,35.4,29.65,SE,140,0.0,0.0,95,0.00,,---,0.00,VWS V14.01,2013-03-08 17:46:00,
2013-03-08 09:51:00,36.7,35.1,29.65,SE,140,0.0,0.0,94,0.00,,---,0.00,VWS V14.01,2013-03-08 17:51:00,
2013-03-08 09:56:00,36.9,35.6,29.65,SE,140,0.0,0.0,95,0.00,,---,0.00,VWS V14.01,2013-03-08 17:56:00,
2013-03-08 10:01:00,37.0,35.7,29.65,WSW,237,0.0,0.0,95,0.00,,---,0.00,VWS V14.01,2013-03-08 18:01:00,
2013-03-08 10:06:00,37.6,36.0,29.65,WSW,237,0.0,0.0,94,0.00,,---,0.00,VWS V14.01,2013-03-08 18:06:00,
2013-03-08 10:11:00,37.8,36.2,29.65,WSW,237,0.0,0.0,94,0.00,,---,0.00,VWS V14.01,2013-03-08 18:11:00,
2013-03-08 10:16:00,38.5,37.2,29.65,WSW,237,0.0,0.0,95,0.00,,---,0.00,VWS V14.01,2013-03-08 18:16:00,
2013-03-08 10:21:00,38.8,37.5,29.65,WSW,237,0.0,0.0,95,0.00,,---,0.00,VWS V14.01,2013-03-08 18:21:00,
2013-03-08 10:26:00,39.2,37.6,29.65,WSW,237,0.0,0.0,94,0.00,,---,0.00,VWS V14.01,2013-03-08 18:26:00,
2013-03-08 10:31:00,39.2,37.6,29.65,WSW,237,0.0,0.0,94,0.00,,---,0.00,VWS V14.01,2013-03-08 18:31:00,
2013-03-08 10:36:00,38.7,37.3,29.65,NNE,32,0.0,0.0,95,0.00,,---,0.00,VWS V14.01,2013-03-08 18:36:00,
2013-03-08 10:41:00,39.2,37.9,29.65,WSW,248,2.7,2.7,95,0.00,,---,0.00,VWS V14.01,2013-03-08 18:41:00,
2013-03-08 10:46:00,39.6,38.2,29.62,WSW,248,0.0,0.0,95,0.00,,---,0.00,VWS V14.01,2013-03-08 18:46:00,
2013-03-08 10:51:00,39.9,38.6,29.62,WSW,246,2.7,2.7,95,0.00,,---,0.00,VWS V14.01,2013-03-08 18:51:00,
2013-03-08 10:56:00,40.3,39.0,29.62,WSW,246,0.0,0.0,95,0.00,,---,0.00,VWS V14.01,2013-03-08 18:56:00,
2013-03-08 11:01:00,41.0,39.4,29.62,South,180,0.0,0.0,94,0.00,,---,0.00,VWS V14.01,2013-03-08 19:01:00,
2013-03-08 11:06:00,42.3,40.7,29.62,SSE,165,2.7,2.7,94,0.00,,---,0.00,VWS V14.01,2013-03-08 19:06:00,
2013-03-08 11:11:00,42.6,41.0,29.62,NNE,26,0.0,2.2,94,0.00,,---,0.00,VWS V14.01,2013-03-08 19:11:00,
2013-03-08 11:16:00,43.3,41.7,29.62,East,85,0.0,0.0,94,0.00,,---,0.00,VWS V14.01,2013-03-08 19:16:00,
2013-03-08 11:21:00,44.1,42.2,29.62,ESE,102,0.0,0.0,93,0.00,,---,0.00,VWS V14.01,2013-03-08 19:21:00,
2013-03-08 11:26:00,44.6,42.4,29.62,SE,146,0.0,0.0,92,0.00,,---,0.00,VWS V14.01,2013-03-08 19:26:00,
2013-03-08 11:31:00,45.9,43.7,29.62,SSE,152,0.0,0.0,92,0.00,,---,0.00,VWS V14.01,2013-03-08 19:31:00,
2013-03-08 11:36:00,46.2,44.0,29.62,NNW,342,0.0,0.0,92,0.00,,---,0.00,VWS V14.01,2013-03-08 19:36:00,
2013-03-08 11:41:00,45.9,43.1,29.62,NNE,28,3.6,3.6,90,0.00,,---,0.00,VWS V14.01,2013-03-08 19:41:00,
2013-03-08 11:46:00,46.9,43.9,29.62,West,263,3.6,3.6,89,0.00,,---,0.00,VWS V14.01,2013-03-08 19:46:00,
2013-03-08 11:51:00,48.0,44.9,29.62,South,175,0.0,2.2,89,0.00,,---,0.00,VWS V14.01,2013-03-08 19:51:00,
2013-03-08 11:56:00,48.2,44.5,29.62,East,99,2.2,2.7,87,0.00,,---,0.00,VWS V14.01,2013-03-08 19:56:00,
2013-03-08 12:01:00,48.9,44.9,29.62,SSE,167,0.0,0.0,86,0.00,,---,0.00,VWS V14.01,2013-03-08 20:01:00,
2013-03-08 12:05:00,49.8,45.8,29.62,West,262,3.6,3.6,86,0.00,,---,0.00,VWS V14.01,2013-03-08 20:05:00,
2013-03-08 12:10:00,50.2,45.5,29.62,West,261,4.0,4.0,84,0.00,,---,0.00,VWS V14.01,2013-03-08 20:10:00,
2013-03-08 12:15:00,50.0,44.7,29.62,SW,235,2.7,2.7,82,0.00,,---,0.00,VWS V14.01,2013-03-08 20:15:00,
2013-03-08 12:20:00,50.4,44.4,29.62,North,0,0.0,3.1,80,0.00,,---,0.00,VWS V14.01,2013-03-08 20:20:00,
2013-03-08 12:25:00,51.4,45.5,29.62,SE,135,2.7,3.6,80,0.00,,---,0.00,VWS V14.01,2013-03-08 20:25:00,
2013-03-08 12:30:00,52.0,45.3,29.62,East,89,3.6,3.6,78,0.00,,---,0.00,VWS V14.01,2013-03-08 20:30:00,
2013-03-08 12:35:00,52.2,45.2,29.62,ESE,113,0.0,2.2,77,0.00,,---,0.00,VWS V14.01,2013-03-08 20:35:00,
2013-03-08 12:40:00,52.2,44.8,29.62,SW,225,2.2,2.7,76,0.00,,---,0.00,VWS V14.01,2013-03-08 20:40:00,
2013-03-08 12:45:00,51.4,43.8,29.62,WSW,250,2.2,2.7,75,0.00,,---,0.00,VWS V14.01,2013-03-08 20:45:00,
2013-03-08 12:50:00,52.2,44.5,29.62,SSW,196,5.8,5.8,75,0.00,,---,0.00,VWS V14.01,2013-03-08 20:50:00,
2013-03-08 12:55:00,53.4,45.7,29.62,SSW,198,3.6,3.6,75,0.00,,---,0.00,VWS V14.01,2013-03-08 20:55:00,
2013-03-08 13:00:00,54.1,46.0,29.62,SSW,198,0.0,0.0,74,0.00,,---,0.00,VWS V14.01,2013-03-08 21:00:00,
2013-03-08 13:05:00,54.1,45.3,29.62,South,176,2.7,4.0,72,0.00,,---,0.00,VWS V14.01,2013-03-08 21:05:00,
2013-03-08 13:10:00,54.5,45.3,29.62,South,172,3.6,3.6,71,0.00,,---,0.00,VWS V14.01,2013-03-08 21:10:00,
2013-03-08 13:15:00,54.9,44.9,29.62,West,261,5.4,6.3,69,0.00,,---,0.00,VWS V14.01,2013-03-08 21:15:00,
2013-03-08 13:20:00,54.9,44.9,29.62,West,260,4.0,4.0,69,0.00,,---,0.00,VWS V14.01,2013-03-08 21:20:00,
2013-03-08 13:25:00,54.7,44.7,29.62,West,265,5.4,5.4,69,0.00,,---,0.00,VWS V14.01,2013-03-08 21:25:00,
2013-03-08 13:30:00,54.5,43.8,29.62,WNW,287,4.0,4.9,67,0.00,,---,0.00,VWS V14.01,2013-03-08 21:30:00,
2013-03-08 13:35:00,55.2,44.9,29.62,South,189,2.7,4.0,68,0.00,,---,0.00,VWS V14.01,2013-03-08 21:35:00,
2013-03-08 13:40:00,55.8,44.6,29.62,WSW,253,4.0,5.8,66,0.00,,---,0.00,VWS V14.01,2013-03-08 21:40:00,
2013-03-08 13:45:00,55.6,44.0,29.62,WSW,256,0.0,3.1,65,0.00,,---,0.00,VWS V14.01,2013-03-08 21:45:00,
2013-03-08 13:50:00,55.6,44.4,29.62,WSW,249,3.1,4.9,66,0.00,,---,0.00,VWS V14.01,2013-03-08 21:50:00,
2013-03-08 13:55:00,55.6,44.0,29.62,North,357,0.0,0.0,65,0.00,,---,0.00,VWS V14.01,2013-03-08 21:55:00,
2013-03-08 14:00:00,55.2,44.1,29.62,WSW,248,5.4,5.4,66,0.00,,---,0.00,VWS V14.01,2013-03-08 22:00:00,
2013-03-08 14:05:00,55.0,43.1,29.62,SW,226,3.1,5.4,64,0.00,,---,0.00,VWS V14.01,2013-03-08 22:05:00,
2013-03-08 14:10:00,55.2,43.3,29.62,East,86,2.2,2.7,64,0.00,,---,0.00,VWS V14.01,2013-03-08 22:10:00,
2013-03-08 14:15:00,55.0,42.7,29.62,North,357,0.0,3.6,63,0.00,,---,0.00,VWS V14.01,2013-03-08 22:15:00,
2013-03-08 14:20:00,54.5,42.2,29.62,West,276,3.6,5.4,63,0.00,,---,0.00,VWS V14.01,2013-03-08 22:20:00,
2013-03-08 14:25:00,54.9,43.3,29.62,ESE,103,2.2,2.2,65,0.00,,---,0.00,VWS V14.01,2013-03-08 22:25:00,
2013-03-08 14:30:00,54.5,42.2,29.62,WSW,249,0.0,3.6,63,0.00,,---,0.00,VWS V14.01,2013-03-08 22:30:00,
2013-03-08 14:35:00,54.5,41.8,29.62,WSW,254,5.4,5.8,62,0.00,,---,0.00,VWS V14.01,2013-03-08 22:35:00,
2013-03-08 14:40:00,55.0,42.3,29.62,WSW,248,0.0,6.3,62,0.00,,---,0.00,VWS V14.01,2013-03-08 22:40:00,
2013-03-08 14:45:00,55.4,42.6,29.62,WNW,295,2.2,3.6,62,0.00,,---,0.00,VWS V14.01,2013-03-08 22:45:00,
2013-03-08 14:50:00,55.2,42.4,29.62,WSW,250,2.2,2.2,62,0.00,,---,0.00,VWS V14.01,2013-03-08 22:50:00,
2013-03-08 14:55:00,55.2,42.0,29.62,ESE,112,0.0,2.7,61,0.00,,---,0.00,VWS V14.01,2013-03-08 22:55:00,
2013-03-08 15:00:00,54.9,42.1,29.62,East,98,0.0,2.7,62,0.00,,---,0.00,VWS V14.01,2013-03-08 23:00:00,
2013-03-08 15:05:00,54.9,42.1,29.62,ESE,103,0.0,0.0,62,0.00,,---,0.00,VWS V14.01,2013-03-08 23:05:00,
2013-03-08 15:10:00,54.0,41.2,29.62,NNW,343,2.2,2.2,62,0.00,,---,0.00,VWS V14.01,2013-03-08 23:10:00,
2013-03-08 15:15:00,53.8,41.9,29.62,NW,307,0.0,0.0,64,0.00,,---,0.00,VWS V14.01,2013-03-08 23:15:00,
2013-03-08 15:20:00,53.6,42.1,29.62,WNW,286,0.0,0.0,65,0.00,,---,0.00,VWS V14.01,2013-03-08 23:20:00,
2013-03-08 15:25:00,53.8,42.3,29.62,South,175,0.0,3.1,65,0.00,,---,0.00,VWS V14.01,2013-03-08 23:25:00,
2013-03-08 15:30:00,53.8,41.9,29.62,ENE,65,2.2,2.2,64,0.00,,---,0.00,VWS V14.01,2013-03-08 23:30:00,
2013-03-08 15:35:00,53.8,41.5,29.62,SE,130,0.0,3.1,63,0.00,,---,0.00,VWS V14.01,2013-03-08 23:35:00,
2013-03-08 15:40:00,53.6,40.9,29.62,NNE,28,0.0,0.0,62,0.00,,---,0.00,VWS V14.01,2013-03-08 23:40:00,
2013-03-08 15:45:00,53.6,41.3,29.62,North,353,0.0,2.7,63,0.00,,---,0.00,VWS V14.01,2013-03-08 23:45:00,
2013-03-08 15:50:00,53.2,41.0,29.62,NW,322,0.0,0.0,63,0.00,,---,0.00,VWS V14.01,2013-03-08 23:50:00,
2013-03-08 15:55:00,53.1,41.2,29.62,SW,233,0.0,2.2,64,0.00,,---,0.00,VWS V14.01,2013-03-08 23:55:00,
2013-03-08 16:00:00,53.2,41.4,29.62,SW,214,0.0,2.7,64,0.00,,---,0.00,VWS V14.01,2013-03-09 00:00:00,
2013-03-08 16:05:00,53.1,40.8,29.62,North,11,2.2,4.0,63,0.00,,---,0.00,VWS V14.01,2013-03-09 00:05:00,
2013-03-08 16:10:00,52.7,40.1,29.62,SE,134,2.7,3.1,62,0.00,,---,0.00,VWS V14.01,2013-03-09 00:10:00,
2013-03-08 16:15:00,52.9,40.6,29.62,SW,227,2.2,3.1,63,0.00,,---,0.00,VWS V14.01,2013-03-09 00:15:00,
2013-03-08 16:20:00,52.7,40.5,29.65,West,260,2.2,3.1,63,0.00,,---,0.00,VWS V14.01,2013-03-09 00:20:00,
2013-03-08 16:25:00,52.0,39.8,29.65,West,273,0.0,0.0,63,0.00,,---,0.00,VWS V14.01,2013-03-09 00:25:00,
2013-03-08 16:30:00,51.8,39.6,29.65,WSW,247,0.0,0.0,63,0.00,,---,0.00,VWS V14.01,2013-03-09 00:30:00,
2013-03-08 16:35:00,51.8,40.0,29.65,WSW,248,0.0,0.0,64,0.00,,---,0.00,VWS V14.01,2013-03-09 00:35:00,
2013-03-08 16:40:00,51.4,39.7,29.65,SW,226,0.0,3.1,64,0.00,,---,0.00,VWS V14.01,2013-03-09 00:40:00,
2013-03-08 16:45:00,51.1,39.3,29.65,North,357,0.0,0.0,64,0.00,,---,0.00,VWS V14.01,2013-03-09 00:45:00,
2013-03-08 16:50:00,50.9,39.2,29.65,West,271,0.0,0.0,64,0.00,,---,0.00,VWS V14.01,2013-03-09 00:50:00,
2013-03-08 16:55:00,50.7,39.4,29.65,North,7,0.0,0.0,65,0.00,,---,0.00,VWS V14.01,2013-03-09 00:55:00,
2013-03-08 17:00:00,50.2,38.5,29.65,North,7,0.0,0.0,64,0.00,,---,0.00,VWS V14.01,2013-03-09 01:00:00,
2013-03-08 17:05:00,49.8,38.5,29.65,North,7,0.0,0.0,65,0.00,,---,0.00,VWS V14.01,2013-03-09 01:05:00,
2013-03-08 17:10:00,49.6,38.8,29.65,North,8,0.0,0.0,66,0.00,,---,0.00,VWS V14.01,2013-03-09 01:10:00,
2013-03-08 17:15:00,49.3,38.8,29.65,North,5,0.0,0.0,67,0.00,,---,0.00,VWS V14.01,2013-03-09 01:15:00,
2013-03-08 17:20:00,49.1,38.6,29.65,NNE,15,2.7,2.7,67,0.00,,---,0.00,VWS V14.01,2013-03-09 01:20:00,
2013-03-08 17:25:00,48.7,38.7,29.65,North,4,0.0,0.0,68,0.00,,---,0.00,VWS V14.01,2013-03-09 01:25:00,
2013-03-08 17:30:00,48.6,38.9,29.65,NNE,29,0.0,0.0,69,0.00,,---,0.00,VWS V14.01,2013-03-09 01:30:00,
2013-03-08 17:35:00,48.4,38.7,29.65,NNE,29,0.0,0.0,69,0.00,,---,0.00,VWS V14.01,2013-03-09 01:35:00,
2013-03-08 17:40:00,48.0,39.1,29.65,NNE,29,0.0,0.0,71,0.00,,---,0.00,VWS V14.01,2013-03-09 01:40:00,
2013-03-08 17:45:00,47.7,38.7,29.65,NNE,29,0.0,0.0,71,0.00,,---,0.00,VWS V14.01,2013-03-09 01:45:00,
2013-03-08 17:50:00,47.5,38.6,29.65,NNE,29,0.0,0.0,71,0.00,,---,0.00,VWS V14.01,2013-03-09 01:50:00,
2013-03-08 17:55:00,47.3,38.7,29.65,NNE,29,0.0,0.0,72,0.00,,---,0.00,VWS V14.01,2013-03-09 01:55:00,
2013-03-08 18:00:00,46.9,38.4,29.68,NNE,29,0.0,0.0,72,0.00,,---,0.00,VWS V14.01,2013-03-09 02:00:00,
2013-03-08 18:05:00,46.4,37.9,29.68,NNE,29,0.0,0.0,72,0.00,,---,0.00,VWS V14.01,2013-03-09 02:05:00,
2013-03-08 18:10:00,46.2,38.4,29.68,NNE,29,0.0,0.0,74,0.00,,---,0.00,VWS V14.01,2013-03-09 02:10:00,
2013-03-08 18:15:00,46.0,38.2,29.68,NNE,29,0.0,0.0,74,0.00,,---,0.00,VWS V14.01,2013-03-09 02:15:00,
2013-03-08 18:20:00,45.9,38.4,29.68,NNE,29,0.0,0.0,75,0.00,,---,0.00,VWS V14.01,2013-03-09 02:20:00,
2013-03-08 18:25:00,45.5,38.0,29.68,NNE,29,0.0,0.0,75,0.00,,---,0.00,VWS V14.01,2013-03-09 02:25:00,
2013-03-08 18:30:00,45.1,38.0,29.68,NNE,29,0.0,0.0,76,0.00,,---,0.00,VWS V14.01,2013-03-09 02:30:00,
2013-03-08 18:35:00,45.0,37.9,29.68,NNE,29,0.0,0.0,76,0.00,,---,0.00,VWS V14.01,2013-03-09 02:35:00,
2013-03-08 18:40:00,44.8,37.7,29.68,NNE,29,0.0,0.0,76,0.00,,---,0.00,VWS V14.01,2013-03-09 02:40:00,
2013-03-08 18:45:00,44.6,37.8,29.68,NNE,29,0.0,0.0,77,0.00,,---,0.00,VWS V14.01,2013-03-09 02:45:00,
2013-03-08 18:50:00,44.4,37.7,29.68,NNE,28,0.0,0.0,77,0.00,,---,0.00,VWS V14.01,2013-03-09 02:50:00,
2013-03-08 18:55:00,44.2,37.5,29.68,NNE,28,0.0,0.0,77,0.00,,---,0.00,VWS V14.01,2013-03-09 02:55:00,
2013-03-08 19:00:00,44.1,37.7,29.68,NNE,28,0.0,0.0,78,0.00,,---,0.00,VWS V14.01,2013-03-09 03:00:00,
2013-03-08 19:05:00,43.9,37.5,29.68,NNE,28,0.0,0.0,78,0.00,,---,0.00,VWS V14.01,2013-03-09 03:05:00,
2013-03-08 19:10:00,43.7,37.3,29.68,NNE,28,0.0,0.0,78,0.00,,---,0.00,VWS V14.01,2013-03-09 03:10:00,
2013-03-08 19:15:00,43.3,37.3,29.68,NNE,28,0.0,0.0,79,0.00,,---,0.00,VWS V14.01,2013-03-09 03:15:00,
2013-03-08 19:20:00,43.0,36.9,29.68,NNE,28,0.0,0.0,79,0.00,,---,0.00,VWS V14.01,2013-03-09 03:20:00,
2013-03-08 19:25:00,42.8,36.8,29.68,NNE,28,0.0,0.0,79,0.00,,---,0.00,VWS V14.01,2013-03-09 03:25:00,
2013-03-08 19:30:00,42.6,36.9,29.71,NNE,28,0.0,0.0,80,0.00,,---,0.00,VWS V14.01,2013-03-09 03:30:00,
2013-03-08 19:35:00,42.4,36.7,29.71,NNE,28,0.0,0.0,80,0.00,,---,0.00,VWS V14.01,2013-03-09 03:35:00,
2013-03-08 19:40:00,42.3,36.9,29.71,NNE,28,0.0,0.0,81,0.00,,---,0.00,VWS V14.01,2013-03-09 03:40:00,
2013-03-08 19:45:00,42.1,36.7,29.71,NNE,28,0.0,0.0,81,0.00,,---,0.00,VWS V14.01,2013-03-09 03:45:00,
2013-03-08 19:50:00,41.9,36.5,29.71,NNE,28,0.0,0.0,81,0.00,,---,0.00,VWS V14.01,2013-03-09 03:50:00,
2013-03-08 19:55:00,41.7,36.3,29.71,NNE,28,0.0,0.0,81,0.00,,---,0.00,VWS V14.01,2013-03-09 03:55:00,
2013-03-08 20:00:00,41.2,36.1,29.71,NNE,28,0.0,0.0,82,0.00,,---,0.00,VWS V14.01,2013-03-09 04:00:00,
2013-03-08 20:05:00,41.0,35.9,29.71,NNE,28,0.0,0.0,82,0.00,,---,0.00,VWS V14.01,2013-03-09 04:05:00,
2013-03-08 20:10:00,40.8,35.8,29.71,NNE,28,0.0,0.0,82,0.00,,---,0.00,VWS V14.01,2013-03-09 04:10:00,
2013-03-08 20:15:00,40.6,35.9,29.71,NNE,28,0.0,0.0,83,0.00,,---,0.00,VWS V14.01,2013-03-09 04:15:00,
2013-03-08 20:20:00,40.5,35.7,29.71,NNE,28,0.0,0.0,83,0.00,,---,0.00,VWS V14.01,2013-03-09 04:20:00,
2013-03-08 20:25:00,40.3,35.5,29.71,NNE,28,0.0,0.0,83,0.00,,---,0.00,VWS V14.01,2013-03-09 04:25:00,
2013-03-08 20:30:00,40.1,35.4,29.71,NNE,28,0.0,0.0,83,0.00,,---,0.00,VWS V14.01,2013-03-09 04:30:00,
2013-03-08 20:35:00,39.9,35.5,29.71,NNE,28,0.0,0.0,84,0.00,,---,0.00,VWS V14.01,2013-03-09 04:35:00,
2013-03-08 20:40:00,39.7,35.3,29.71,NNE,28,0.0,0.0,84,0.00,,---,0.00,VWS V14.01,2013-03-09 04:40:00,
2013-03-08 20:45:00,39.4,35.0,29.71,NNE,28,0.0,0.0,84,0.00,,---,0.00,VWS V14.01,2013-03-09 04:45:00,
2013-03-08 20:50:00,39.4,35.0,29.71,NNE,28,0.0,0.0,84,0.00,,---,0.00,VWS V14.01,2013-03-09 04:50:00,
2013-03-08 20:55:00,39.2,34.8,29.71,NNE,28,0.0,0.0,84,0.00,,---,0.00,VWS V14.01,2013-03-09 04:55:00,
2013-03-08 21:00:00,39.2,34.8,29.71,NNE,28,0.0,0.0,84,0.00,,---,0.00,VWS V14.01,2013-03-09 05:00:00,
2013-03-08 21:05:00,38.8,34.7,29.71,NNE,28,0.0,0.0,85,0.00,,---,0.00,VWS V14.01,2013-03-09 05:05:00,
2013-03-08 21:10:00,38.8,34.7,29.71,NNE,28,0.0,0.0,85,0.00,,---,0.00,VWS V14.01,2013-03-09 05:10:00,
2013-03-08 21:15:00,39.2,35.1,29.74,NNE,28,0.0,0.0,85,0.00,,---,0.00,VWS V14.01,2013-03-09 05:15:00,
2013-03-08 21:20:00,39.2,35.1,29.74,NNE,28,0.0,0.0,85,0.00,,---,0.00,VWS V14.01,2013-03-09 05:20:00,
2013-03-08 21:25:00,39.2,35.1,29.74,NNE,28,0.0,0.0,85,0.00,,---,0.00,VWS V14.01,2013-03-09 05:25:00,
2013-03-08 21:30:00,38.8,34.7,29.74,NNE,28,0.0,0.0,85,0.00,,---,0.00,VWS V14.01,2013-03-09 05:30:00,
2013-03-08 21:35:00,38.5,34.4,29.74,NNE,28,0.0,0.0,85,0.00,,---,0.00,VWS V14.01,2013-03-09 05:35:00,
2013-03-08 21:40:00,38.3,34.2,29.74,NNE,28,0.0,0.0,85,0.00,,---,0.00,VWS V14.01,2013-03-09 05:40:00,
2013-03-08 21:45:00,38.1,34.0,29.74,NNE,28,0.0,0.0,85,0.00,,---,0.00,VWS V14.01,2013-03-09 05:45:00,
2013-03-08 21:50:00,37.8,33.7,29.74,NNE,28,0.0,0.0,85,0.00,,---,0.00,VWS V14.01,2013-03-09 05:50:00,
2013-03-08 21:55:00,37.4,33.3,29.74,NNE,28,0.0,0.0,85,0.00,,---,0.00,VWS V14.01,2013-03-09 05:55:00,
2013-03-08 22:00:00,37.9,33.8,29.74,NNE,28,0.0,0.0,85,0.00,,---,0.00,VWS V14.01,2013-03-09 06:00:00,
2013-03-08 22:05:00,37.8,33.7,29.74,NNE,28,0.0,0.0,85,0.00,,---,0.00,VWS V14.01,2013-03-09 06:05:00,
2013-03-08 22:10:00,37.6,33.5,29.74,NNE,28,0.0,0.0,85,0.00,,---,0.00,VWS V14.01,2013-03-09 06:10:00,
2013-03-08 22:15:00,37.2,33.4,29.74,NNE,28,0.0,0.0,86,0.00,,---,0.00,VWS V14.01,2013-03-09 06:15:00,
2013-03-08 22:20:00,37.0,33.2,29.74,NNE,28,0.0,0.0,86,0.00,,---,0.00,VWS V14.01,2013-03-09 06:20:00,
2013-03-08 22:25:00,37.0,33.2,29.74,NNE,28,0.0,0.0,86,0.00,,---,0.00,VWS V14.01,2013-03-09 06:25:00,
2013-03-08 22:30:00,36.9,33.1,29.74,NNE,28,0.0,0.0,86,0.00,,---,0.00,VWS V14.01,2013-03-09 06:30:00,
2013-03-08 22:35:00,36.9,33.1,29.77,NNE,28,0.0,0.0,86,0.00,,---,0.00,VWS V14.01,2013-03-09 06:35:00,
2013-03-08 22:40:00,36.7,32.9,29.77,NNE,28,0.0,0.0,86,0.00,,---,0.00,VWS V14.01,2013-03-09 06:40:00,
2013-03-08 22:45:00,36.5,32.7,29.77,NNE,28,0.0,0.0,86,0.00,,---,0.00,VWS V14.01,2013-03-09 06:45:00,
2013-03-08 22:50:00,36.9,33.1,29.77,NNE,28,0.0,0.0,86,0.00,,---,0.00,VWS V14.01,2013-03-09 06:50:00,
2013-03-08 22:55:00,36.7,32.9,29.77,NNE,28,0.0,0.0,86,0.00,,---,0.00,VWS V14.01,2013-03-09 06:55:00,
2013-03-08 23:00:00,36.3,32.5,29.77,NNE,28,0.0,0.0,86,0.00,,---,0.00,VWS V14.01,2013-03-09 07:00:00,
2013-03-08 23:05:00,36.3,32.5,29.77,NNE,28,0.0,0.0,86,0.00,,---,0.00,VWS V14.01,2013-03-09 07:05:00,
2013-03-08 23:10:00,36.5,32.7,29.77,NNE,28,0.0,0.0,86,0.00,,---,0.00,VWS V14.01,2013-03-09 07:10:00,
2013-03-08 23:15:00,36.3,32.5,29.77,NNE,28,0.0,0.0,86,0.00,,---,0.00,VWS V14.01,2013-03-09 07:15:00,
2013-03-08 23:20:00,36.3,32.5,29.77,NNE,28,0.0,0.0,86,0.00,,---,0.00,VWS V14.01,2013-03-09 07:20:00,
2013-03-08 23:25:00,36.0,32.2,29.77,NNE,28,0.0,0.0,86,0.00,,---,0.00,VWS V14.01,2013-03-09 07:25:00,
2013-03-08 23:30:00,36.0,32.2,29.77,NNE,28,0.0,0.0,86,0.00,,---,0.00,VWS V14.01,2013-03-09 07:30:00,
2013-03-08 23:35:00,35.6,31.8,29.77,NNE,28,0.0,0.0,86,0.00,,---,0.00,VWS V14.01,2013-03-09 07:35:00,
2013-03-08 23:40:00,35.4,31.7,29.77,NNE,28,0.0,0.0,86,0.00,,---,0.00,VWS V14.01,2013-03-09 07:40:00,
2013-03-08 23:45:00,35.2,31.5,29.77,NNE,28,0.0,0.0,86,0.00,,---,0.00,VWS V14.01,2013-03-09 07:45:00,
2013-03-08 23:50:00,35.1,31.6,29.77,NNE,28,0.0,0.0,87,0.00,,---,0.00,VWS V14.01,2013-03-09 07:50:00,
2013-03-08 23:55:00,35.2,31.8,29.77,NNE,28,0.0,0.0,87,0.00,,---,0.00,VWS V14.01,2013-03-09 07:55:00,